User: anonymous   Login
Location: Unspecified
(0.0000°N, 0.0000°E)
Time: 15:35:10
(UTC+00:00)
Language:

S-56A Canister/Altair - Orbit

View from above orbital plane
View from above orbital plane
View from above satellite
View from above satellite

Ground track
Ground track

The orbit data is extracted from the following two-line orbital elements,

1 00082U 61004B   23344.68256963  .00000282  00000-0  28866-3 0  9997
2 00082  38.8495 171.5846 1163993  98.8898 274.5088 12.26445125963849
Epoch (UTC): 10 December 2023 16:22:54
Eccentricity: 0.1163993
inclination: 38.8495°
perigee height: 640 km
apogee height: 2489 km
right ascension of ascending node: 171.5846°
argument of perigee: 98.8898°
revolutions per day: 12.26445125
mean anomaly at epoch: 274.5088°
orbit number at epoch: 96384

The dashed part of the orbit path shows where the satellite is in the earth's shadow,  

DLR